GW3180 Weather Reports


time (UTC)temp
C
wind
direction
speed
KPH
gust
KPH
rain 1hr
cm
rain 24hr
cm
rain mn
cm
humidity
%
barometer
mb
20260506202052 30 262 0.0 1.6 0.00 0.00 0.00 69 1006.1
20260506201549 30 233 0.0 1.6 0.00 0.00 0.00 71 1006.1
20260506201046 30 266 0.0 0.0 0.00 0.00 0.00 70 1006.4
20260506200542 30 45 1.6 3.2 0.00 0.00 0.00 69 1006.4
20260506200039 30 228 0.0 0.0 0.00 0.00 0.00 73 1006.4
20260506195536 30 228 0.0 0.0 0.00 0.00 0.00 74 1006.5
20260506195032 29 119 1.6 1.6 0.00 0.00 0.00 74 1006.5
20260506194530 29 49 3.2 3.2 0.00 0.00 0.00 72 1006.8
20260506194026 29 216 0.0 0.0 0.00 0.00 0.00 74 1006.6
20260506193523 29 212 0.0 1.6 0.00 0.00 0.00 73 1006.6
20260506193021 30 258 3.2 3.2 0.00 0.00 0.00 72 1006.8
20260506192517 30 30 0.0 1.6 0.00 0.00 0.00 73 1006.7
20260506192013 29 284 0.0 0.0 0.00 0.00 0.00 73 1006.7
20260506191510 30 85 3.2 9.7 0.00 0.00 0.00 74 1006.7
20260506191006 29 101 1.6 1.6 0.00 0.00 0.00 76 1006.7
20260506190503 28 42 1.6 1.6 0.00 0.00 0.00 77 1006.8
20260506190000 28 59 1.6 1.6 0.00 0.00 0.00 77 1006.9
20260506185458 28 58 1.6 3.2 0.00 0.00 0.00 76 1006.9
20260506184954 28 220 0.0 0.0 0.00 0.00 0.00 79 1007.0
20260506184451 28 87 0.0 3.2 0.00 0.00 0.00 80 1007.0
20260506183943 27 266 0.0 0.0 0.00 0.00 0.00 80 1007.2
20260506183438 27 217 1.6 3.2 0.00 0.00 0.00 80 1007.0
20260506182935 27 73 0.0 1.6 0.00 0.00 0.00 82 1007.6
20260506182432 27 203 0.0 0.0 0.00 0.00 0.00 83 1007.3
20260506181930 27 57 0.0 0.0 0.00 0.00 0.00 81 1007.6
20260506181428 27 104 0.0 0.0 0.00 0.00 0.00 83 1007.5
20260506180924 27 303 1.6 3.2 0.00 0.00 0.00 82 1007.8
20260506180420 27 242 0.0 0.0 0.00 0.00 0.00 84 1007.8
20260506175917 27 265 0.0 0.0 0.00 0.00 0.00 83 1007.9
20260506175414 27 220 0.0 0.0 0.00 0.00 0.00 84 1007.9
20260506174911 26 264 3.2 3.2 0.00 0.00 0.00 84 1007.9
20260506174408 26 253 0.0 1.6 0.00 0.00 0.00 85 1007.9
20260506173905 26 276 0.0 0.0 0.00 0.00 0.00 85 1007.8
20260506173402 26 225 0.0 0.0 0.00 0.00 0.00 86 1007.7
20260506172900 26 286 0.0 1.6 0.00 0.00 0.00 86 1007.8
20260506172356 26 91 0.0 0.0 0.00 0.00 0.00 88 1008.0
20260506171853 26 250 0.0 0.0 0.00 0.00 0.00 88 1007.9
20260506171350 26 280 0.0 0.0 0.00 0.00 0.00 87 1007.9
20260506170848 25 251 0.0 0.0 0.00 0.00 0.00 88 1007.9
20260506170344 25 243 0.0 0.0 0.00 0.00 0.00 90 1008.0
20260506165843 25 85 1.6 1.6 0.00 0.00 0.00 91 1008.1
20260506165341 25 18 3.2 4.8 0.00 0.00 0.00 91 1008.0
20260506164837 25 233 0.0 0.0 0.00 0.00 0.00 92 1008.2
20260506164334 25 272 0.0 0.0 0.00 0.00 0.00 92 1008.0
20260506163832 25 336 1.6 1.6 0.00 0.00 0.00 93 1008.1
20260506163326 25 298 1.6 3.2 0.00 0.00 0.00 93 1007.9
20260506162821 25 220 0.0 0.0 0.00 0.00 0.00 94 1007.8
20260506162319 24 303 3.2 3.2 0.00 0.00 0.00 94 1007.9
20260506161811 24 157 1.6 1.6 0.00 0.00 0.00 95 1008.1
20260506161308 24 215 0.0 1.6 0.00 0.00 0.00 96 1007.8
20260506160805 23 132 0.0 1.6 0.00 0.00 0.00 97 1007.6
20260506160301 24 53 1.6 3.2 0.00 0.00 0.00 97 1007.7
20260506155801 23 247 0.0 0.0 0.00 0.00 0.00 97 1007.7
20260506155257 23 256 0.0 0.0 0.00 0.00 0.00 96 1007.7
20260506153404 24 259 0.0 0.0 0.00 0.00 0.00 92 1007.2
20260506152901 24 185 0.0 0.0 0.00 0.00 0.00 92 1007.0
20260506152358 24 136 0.0 0.0 0.00 0.00 0.00 92 1007.5
20260506151857 24 221 0.0 0.0 0.00 0.00 0.00 92 1007.2
20260506151353 24 242 0.0 1.6 0.00 0.00 0.00 92 1007.2
20260506150851 24 339 1.6 1.6 0.00 0.00 0.00 92 1007.1
20260506150347 24 191 0.0 0.0 0.00 0.00 0.00 92 1007.1
20260506145844 24 157 1.6 1.6 0.00 0.00 0.00 92 1007.1
20260506145340 24 50 0.0 1.6 0.00 0.00 0.00 92 1006.9
20260506144838 24 46 1.6 1.6 0.00 0.00 0.00 92 1006.9
20260506144334 24 223 0.0 0.0 0.00 0.00 0.00 93 1006.8
20260506143833 24 124 0.0 0.0 0.00 0.00 0.00 93 1006.7
20260506143329 24 201 0.0 0.0 0.00 0.00 0.00 93 1006.9
20260506142828 24 146 0.0 0.0 0.00 0.00 0.00 93 1006.6
20260506142325 24 186 0.0 0.0 0.00 0.00 0.00 93 1006.5
20260506141824 24 196 0.0 0.0 0.00 0.00 0.00 94 1006.7
20260506141321 24 53 1.6 1.6 0.00 0.00 0.00 94 1006.4
20260506140819 24 209 0.0 0.0 0.00 0.00 0.00 94 1006.3
20260506140316 24 222 1.6 1.6 0.00 0.00 0.00 94 1006.2
20260506135813 24 222 0.0 0.0 0.00 0.00 0.00 94 1006.4
20260506135309 23 165 3.2 3.2 0.00 0.00 0.00 94 1006.0
20260506134806 24 111 0.0 3.2 0.00 0.00 0.00 95 1005.9
20260506134302 23 31 0.0 0.0 0.00 0.00 0.00 95 1005.7
20260506133759 23 162 1.6 1.6 0.00 0.00 0.00 95 1005.5
20260506133256 23 209 1.6 1.6 0.00 0.00 0.00 95 1005.8
20260506132753 23 216 1.6 1.6 0.00 0.00 0.00 95 1005.9
20260506132250 23 56 1.6 3.2 0.00 0.00 0.00 95 1005.7
20260506131748 23 64 1.6 1.6 0.00 0.00 0.00 96 1005.7
20260506131243 23 170 1.6 1.6 0.00 0.00 0.00 96 1005.5
20260506130740 23 215 0.0 0.0 0.00 0.00 0.00 96 1005.5
20260506130237 23 193 0.0 1.6 0.00 0.00 0.00 96 1005.3
20260506125736 23 212 0.0 0.0 0.00 0.00 0.00 96 1005.4
20260506125233 23 199 1.6 1.6 0.00 0.00 0.00 96 1005.6
20260506124731 23 214 0.0 0.0 0.00 0.00 0.00 97 1005.4
20260506124229 23 156 0.0 0.0 0.00 0.00 0.00 97 1005.4
20260506123726 23 102 0.0 1.6 0.00 0.00 0.00 97 1005.6
20260506123224 23 235 0.0 1.6 0.00 0.00 0.00 97 1005.4
20260506122721 23 101 1.6 1.6 0.00 0.00 0.00 97 1005.5
20260506122218 23 235 0.0 1.6 0.00 0.00 0.00 97 1005.4
20260506121716 23 86 3.2 6.4 0.00 0.00 0.00 97 1005.5
20260506121213 23 234 0.0 0.0 0.00 0.00 0.00 97 1005.5
20260506120710 23 119 0.0 1.6 0.00 0.00 0.00 97 1005.7
20260506120208 23 208 0.0 1.6 0.00 0.00 0.00 97 1005.3
20260506115706 23 181 0.0 0.0 0.00 0.00 0.00 97 1005.5
20260506115204 23 60 0.0 0.0 0.00 0.00 0.00 97 1005.2
20260506114701 23 202 0.0 0.0 0.00 0.00 0.00 97 1005.4
20260506114158 23 181 0.0 0.0 0.00 0.00 0.00 97 1005.4
20260506113657 23 68 1.6 1.6 0.00 0.00 0.00 97 1005.4
20260506113154 23 192 0.0 0.0 0.00 0.00 0.00 97 1005.3
20260506112649 23 192 0.0 0.0 0.00 0.00 0.00 97 1005.3
20260506112148 23 192 0.0 0.0 0.00 0.00 0.00 97 1005.4
20260506111645 23 192 0.0 0.0 0.00 0.00 0.00 97 1005.3
20260506111143 23 192 0.0 0.0 0.00 0.00 0.00 97 1005.4
20260506110640 23 194 0.0 0.0 0.00 0.00 0.00 97 1005.3
20260506110137 23 209 0.0 0.0 0.00 0.00 0.00 97 1005.4
20260506105633 23 209 0.0 0.0 0.00 0.00 0.00 97 1005.5
20260506105130 23 208 0.0 0.0 0.00 0.00 0.00 97 1005.4
20260506104629 23 208 0.0 0.0 0.00 0.00 0.00 97 1005.2
20260506104126 23 208 0.0 0.0 0.00 0.00 0.00 97 1005.2
20260506103623 23 192 0.0 0.0 0.00 0.00 0.00 97 1005.2
20260506103120 23 197 0.0 0.0 0.00 0.00 0.00 97 1005.3
20260506102618 23 205 0.0 0.0 0.00 0.00 0.00 97 1005.1
20260506102115 23 207 0.0 0.0 0.00 0.00 0.00 97 1005.0
20260506101612 23 208 0.0 0.0 0.00 0.00 0.00 96 1005.3
20260506101109 23 207 0.0 0.0 0.00 0.00 0.00 96 1005.0
20260506100607 23 218 0.0 0.0 0.00 0.00 0.00 96 1005.1
20260506100105 23 212 0.0 0.0 0.00 0.00 0.00 96 1005.0
20260506095604 23 207 0.0 0.0 0.00 0.00 0.00 96 1004.9
20260506095100 23 231 0.0 0.0 0.00 0.00 0.00 96 1005.2
20260506094557 23 214 0.0 0.0 0.00 0.00 0.00 96 1005.1
20260506094055 23 215 0.0 0.0 0.00 0.00 0.00 96 1005.2
20260506093553 23 213 0.0 0.0 0.00 0.00 0.00 96 1005.3
20260506093051 23 206 0.0 0.0 0.00 0.00 0.00 96 1005.2
20260506092548 23 227 0.0 0.0 0.00 0.00 0.00 96 1005.2
20260506092045 23 205 0.0 0.0 0.00 0.00 0.00 97 1005.1
20260506091543 23 219 0.0 0.0 0.00 0.00 0.00 97 1005.1
20260506091040 23 222 0.0 0.0 0.00 0.00 0.00 97 1005.0
20260506090538 23 161 0.0 1.6 0.00 0.00 0.00 97 1005.2
20260506090033 23 174 0.0 1.6 0.00 0.00 0.00 97 1005.2
20260506084233 23 201 0.0 1.6 0.00 0.00 0.00 95 1005.1
20260506083730 23 201 0.0 1.6 0.00 0.00 0.00 95 1005.1
20260506083228 23 212 0.0 0.0 0.00 0.00 0.00 95 1005.3
20260506082725 23 232 0.0 1.6 0.00 0.00 0.00 94 1005.3
20260506082220 23 210 1.6 1.6 0.00 0.00 0.00 94 1005.3
20260506081719 23 61 3.2 6.4 0.00 0.00 0.00 94 1005.5
20260506081216 23 206 0.0 0.0 0.00 0.00 0.00 94 1005.3
20260506080714 23 217 0.0 1.6 0.00 0.00 0.00 94 1005.4
20260506080210 23 210 0.0 0.0 0.00 0.00 0.00 94 1005.2
20260506073154 23 137 3.2 3.2 0.00 0.00 0.00 94 1005.3
20260506072650 24 251 0.0 0.0 0.00 0.00 0.00 93 1005.4
20260506072148 24 248 3.2 3.2 0.00 0.00 0.00 93 1005.3
20260506071645 24 225 0.0 0.0 0.00 0.00 0.00 93 1005.5
20260506071143 24 226 0.0 0.0 0.00 0.00 0.00 93 1005.6
20260506070640 24 49 0.0 0.0 0.00 0.00 0.00 93 1005.5
20260506070137 24 39 0.0 3.2 0.00 0.00 0.00 93 1005.7
20260506062114 24 225 1.6 1.6 0.00 0.00 0.00 93 1005.4
20260506061610 24 63 1.6 4.8 0.00 0.00 0.00 93 1005.4
20260506061108 24 201 0.0 1.6 0.00 0.00 0.00 94 1005.5
20260506060606 24 207 1.6 3.2 0.00 0.00 0.00 94 1005.3
20260506051035 24 199 0.0 0.0 0.00 0.00 0.00 93 1005.3
20260506050533 24 85 6.4 9.7 0.00 0.00 0.00 93 1005.3
20260506045023 25 287 0.0 1.6 0.00 0.00 0.00 92 1005.5
20260506044521 25 195 1.6 3.2 0.00 0.00 0.00 92 1005.3
20260506044018 25 154 1.6 1.6 0.00 0.00 0.00 91 1005.1
20260506043515 25 196 1.6 3.2 0.00 0.00 0.00 91 1005.2
20260506043013 25 200 1.6 1.6 0.00 0.00 0.00 91 1005.2
20260506042512 25 160 3.2 4.8 0.00 0.00 0.00 90 1005.3
20260506042010 25 191 3.2 3.2 0.00 0.00 0.00 90 1005.3
20260506041508 25 211 0.0 1.6 0.00 0.00 0.00 90 1004.9
20260506041004 25 82 6.4 6.4 0.00 0.00 0.00 89 1004.9
20260506040502 25 80 1.6 1.6 0.00 0.00 0.00 89 1005.1
20260506035958 26 230 1.6 3.2 0.00 0.00 0.00 88 1004.8
20260506035455 26 110 1.6 1.6 0.00 0.00 0.00 88 1004.9
20260506034951 26 219 1.6 3.2 0.00 0.00 0.00 88 1004.7
20260506034449 26 77 0.0 1.6 0.00 0.00 0.00 88 1004.9
20260506033946 26 108 6.4 9.7 0.00 0.00 0.00 87 1004.8
20260506033444 26 159 1.6 3.2 0.00 0.00 0.00 87 1004.7
20260506032940 26 50 3.2 3.2 0.00 0.00 0.00 87 1004.6
20260506032437 26 226 0.0 1.6 0.00 0.00 0.00 86 1004.5
20260506031934 26 59 6.4 9.7 0.00 0.00 0.00 86 1004.5
20260506031431 26 71 6.4 9.7 0.00 0.00 0.00 86 1004.6
20260506030929 26 214 1.6 1.6 0.00 0.00 0.00 86 1004.5
20260506030427 26 87 4.8 11.3 0.00 0.00 0.00 85 1004.6
20260506025923 26 216 3.2 6.4 0.00 0.00 0.00 85 1004.3
20260506025420 27 118 1.6 1.6 0.00 0.00 0.00 85 1004.2
20260506024917 27 79 9.7 14.5 0.00 0.00 0.00 85 1004.0
20260506024414 27 205 0.0 0.0 0.00 0.00 0.00 85 1003.9
20260506023909 27 225 0.0 1.6 0.00 0.00 0.00 84 1003.8
20260506023407 27 72 3.2 3.2 0.00 0.00 0.00 84 1003.7
20260506022903 27 207 3.2 3.2 0.00 0.00 0.00 83 1003.8
20260506022401 27 80 3.2 4.8 0.00 0.00 0.00 83 1003.8
20260506021859 27 205 0.0 0.0 0.00 0.00 0.00 82 1003.8
20260506021355 27 215 3.2 6.4 0.00 0.00 0.00 82 1003.4
20260506020852 28 266 4.8 6.4 0.00 0.00 0.00 81 1003.5
20260506020350 28 49 3.2 4.8 0.00 0.00 0.00 80 1003.5
20260506015847 28 165 3.2 3.2 0.00 0.00 0.00 79 1003.4
20260506015345 28 209 0.0 1.6 0.00 0.00 0.00 78 1003.2
20260506014842 28 132 3.2 3.2 0.00 0.00 0.00 77 1003.1
20260506014338 28 112 3.2 4.8 0.00 0.00 0.00 76 1003.0
20260506013835 28 119 1.6 1.6 0.00 0.00 0.00 77 1002.9
20260506013333 28 227 0.0 0.0 0.00 0.00 0.00 76 1003.0
20260506012829 28 39 6.4 6.4 0.00 0.00 0.00 76 1002.7
20260506012326 28 198 0.0 0.0 0.00 0.00 0.00 76 1002.6
20260506011823 28 120 0.0 0.0 0.00 0.00 0.00 76 1002.8
20260506011320 28 172 1.6 1.6 0.00 0.00 0.00 75 1002.6
20260506010817 29 204 0.0 0.0 0.00 0.00 0.00 75 1002.4
20260506010315 29 212 0.0 1.6 0.00 0.00 0.00 75 1002.3
20260506005812 29 183 0.0 1.6 0.00 0.00 0.00 74 1002.3
20260506005309 29 211 0.0 0.0 0.00 0.00 0.00 74 1002.3
20260506004805 29 279 0.0 1.6 0.00 0.00 0.00 73 1002.1
20260506004303 30 217 0.0 0.0 0.00 0.00 0.00 73 1002.2
20260506003758 30 76 4.8 4.8 0.00 0.00 0.00 71 1002.2
20260506003255 30 138 1.6 3.2 0.00 0.00 0.00 72 1002.3
20260506002751 30 204 0.0 0.0 0.00 0.00 0.00 72 1002.1
20260506002247 30 212 0.0 0.0 0.00 0.00 0.00 72 1002.2
20260506001743 30 236 0.0 0.0 0.00 0.00 0.00 71 1002.3
20260506001241 30 185 0.0 0.0 0.00 0.00 0.00 71 1002.4
20260506000738 30 213 0.0 0.0 0.00 0.00 0.00 72 1002.1
20260506000235 31 226 0.0 0.0 0.00 0.00 0.00 70 1002.2
20260505235732 30 244 0.0 0.0 0.00 0.00 0.00 70 1002.2
20260505235230 30 239 1.6 1.6 0.00 0.00 0.00 70 1002.0
20260505234726 30 225 0.0 0.0 0.00 0.00 0.00 70 1002.3
20260505234224 31 220 0.0 1.6 0.00 0.00 0.00 71 1002.0
20260505233720 31 248 0.0 0.0 0.00 0.00 0.00 69 1002.2
20260505233218 31 249 0.0 0.0 0.00 0.00 0.00 72 1002.0
20260505232715 30 217 0.0 0.0 0.00 0.00 0.00 71 1002.1
20260505232213 30 217 0.0 0.0 0.00 0.00 0.00 72 1002.2
20260505231709 30 217 0.0 0.0 0.00 0.00 0.00 71 1002.2
20260505231208 30 247 0.0 0.0 0.00 0.00 0.00 71 1002.2
20260505230706 30 233 0.0 0.0 0.00 0.00 0.00 70 1002.2
20260505230202 30 167 3.2 3.2 0.00 0.00 0.00 70 1002.2
20260505225659 31 209 0.0 0.0 0.00 0.00 0.00 70 1002.1
20260505225155 30 254 0.0 0.0 0.00 0.00 0.00 68 1002.2
20260505224651 31 202 3.2 4.8 0.00 0.00 0.00 70 1002.1
20260505224149 30 159 0.0 1.6 0.00 0.00 0.00 71 1002.1
20260505223646 31 12 1.6 3.2 0.00 0.00 0.00 69 1002.0
20260505223142 30 230 1.6 1.6 0.00 0.00 0.00 70 1002.1
20260505222638 30 25 3.2 3.2 0.00 0.00 0.00 70 1002.1
20260505222135 31 222 1.6 3.2 0.00 0.00 0.00 70 1002.1
20260505221632 30 221 0.0 1.6 0.00 0.00 0.00 70 1002.2
20260505221128 31 188 0.0 0.0 0.00 0.00 0.00 70 1002.2
20260505220626 31 77 1.6 1.6 0.00 0.00 0.00 68 1002.3
20260505220123 31 234 0.0 1.6 0.00 0.00 0.00 68 1002.4
20260505215621 31 182 0.0 1.6 0.00 0.00 0.00 69 1002.4
20260505215119 30 345 1.6 1.6 0.00 0.00 0.00 70 1002.6
20260505214617 31 222 0.0 1.6 0.00 0.00 0.00 70 1002.6
20260505214114 30 230 1.6 1.6 0.00 0.00 0.00 69 1002.6
20260505213611 30 84 3.2 3.2 0.00 0.00 0.00 70 1002.6
20260505213108 31 232 0.0 0.0 0.00 0.00 0.00 73 1002.9
20260505212603 31 268 0.0 0.0 0.00 0.00 0.00 71 1002.8
20260505212101 30 234 0.0 0.0 0.00 0.00 0.00 70 1002.9
20260505211558 30 237 0.0 0.0 0.00 0.00 0.00 71 1003.0
20260505211055 30 232 1.6 1.6 0.00 0.00 0.00 72 1003.1
20260505210552 30 207 1.6 1.6 0.00 0.00 0.00 72 1003.1
20260505210049 30 204 1.6 1.6 0.00 0.00 0.00 71 1003.3
20260505205547 30 83 4.8 4.8 0.00 0.00 0.00 69 1003.3
20260505205044 30 216 1.6 1.6 0.00 0.00 0.00 71 1003.4
20260505204541 30 227 0.0 0.0 0.00 0.00 0.00 71 1003.3
20260505204038 30 232 0.0 1.6 0.00 0.00 0.00 70 1003.7
20260505203535 30 249 1.6 1.6 0.00 0.00 0.00 72 1003.9
20260505203032 30 282 0.0 1.6 0.00 0.00 0.00 72 1003.7
20260505202528 30 238 0.0 0.0 0.00 0.00 0.00 73 1004.0